Stündliche Wetter Juncza

Heute, 7 März, Sonntag

Zeit Temperatur Niederschläge Wind Luftdruck Luftfeuchtigkeit
00:00 -2°C° 0 mm 7 m/S 747 mmHg 80%
01:00 -2°C° 0 mm 7 m/S 746 mmHg 81%
02:00 -4°C° 0 mm 8 m/S 746 mmHg 82%
03:00 -4°C° 0 mm 8 m/S 745 mmHg 83%
04:00 -4°C° 0 mm 9 m/S 745 mmHg 84%
05:00 -4°C° 0.1 mm 9 m/S 744 mmHg 86%
06:00 -4°C° 0.1 mm 9 m/S 744 mmHg 87%
07:00 -4°C° 0 mm 9 m/S 743 mmHg 89%
08:00 -4°C° 0.1 mm 9 m/S 743 mmHg 87%
09:00 -3°C° 0.1 mm 9 m/S 743 mmHg 85%
10:00 -3°C° 0.1 mm 9 m/S 743 mmHg 84%
11:00 -3°C° 0.2 mm 9 m/S 743 mmHg 87%
12:00 -2°C° 0.2 mm 8 m/S 742 mmHg 90%
13:00 -2°C° 0 mm 8 m/S 742 mmHg 93%
14:00 -2°C° 0.6 mm 7 m/S 742 mmHg 94%
15:00 -2°C° 0.6 mm 7 m/S 742 mmHg 95%
16:00 -3°C° 0.6 mm 6 m/S 742 mmHg 96%
17:00 -2°C° 0.5 mm 5 m/S 742 mmHg 93%
18:00 -3°C° 0.5 mm 4 m/S 742 mmHg 89%
19:00 -2°C° 0.5 mm 3 m/S 742 mmHg 86%
20:00 -4°C° 0.1 mm 3 m/S 742 mmHg 87%
21:00 -4°C° 0.1 mm 3 m/S 743 mmHg 88%
22:00 -4°C° 0.1 mm 3 m/S 743 mmHg 89%
23:00 -5°C° 0 mm 3 m/S 743 mmHg 86%

Morgen, 8 März, Montag

Zeit Temperatur Niederschläge Wind Luftdruck Luftfeuchtigkeit
00:00 -5°C° 0 mm 3 m/S 743 mmHg 84%
01:00 -6°C° 0 mm 3 m/S 743 mmHg 82%
02:00 -5°C° 0 mm 3 m/S 744 mmHg 81%
03:00 -5°C° 0 mm 3 m/S 744 mmHg 80%
04:00 -5°C° 0 mm 4 m/S 744 mmHg 79%
05:00 -5°C° 0 mm 4 m/S 744 mmHg 79%
06:00 -5°C° 0 mm 4 m/S 745 mmHg 80%
07:00 -5°C° 0 mm 4 m/S 745 mmHg 80%
08:00 -4°C° 0.1 mm 4 m/S 746 mmHg 76%
09:00 -4°C° 0.1 mm 5 m/S 746 mmHg 72%
10:00 -2°C° 0.1 mm 5 m/S 747 mmHg 68%
11:00 -1°C° 0.1 mm 5 m/S 747 mmHg 66%
12:00 -1°C° 0.1 mm 5 m/S 747 mmHg 63%
13:00 -1°C° 0.1 mm 5 m/S 747 mmHg 61%
14:00 -1°C° 0.1 mm 5 m/S 747 mmHg 63%
15:00 -2°C° 0.1 mm 5 m/S 747 mmHg 64%
16:00 -2°C° 0.1 mm 5 m/S 748 mmHg 65%
17:00 -3°C° 0 mm 4 m/S 748 mmHg 71%
18:00 -4°C° 0 mm 3 m/S 748 mmHg 77%
19:00 -4°C° 0 mm 2 m/S 749 mmHg 83%
20:00 -4°C° 0 mm 2 m/S 749 mmHg 83%
21:00 -5°C° 0 mm 2 m/S 749 mmHg 84%
22:00 -3°C° 0 mm 1 m/S 749 mmHg 85%
23:00 -3°C° 0 mm 1 m/S 750 mmHg 84%

übermorgen, 9 März, Dienstag

Zeit Temperatur Niederschläge Wind Luftdruck Luftfeuchtigkeit
00:00 -3°C° 0 mm 1 m/S 750 mmHg 84%
01:00 -3°C° 0 mm 1 m/S 750 mmHg 84%
02:00 -3°C° 0 mm 1 m/S 750 mmHg 83%
03:00 -2°C° 0 mm 1 m/S 750 mmHg 82%
04:00 -2°C° 0 mm 1 m/S 749 mmHg 82%
05:00 -2°C° 0 mm 1 m/S 749 mmHg 81%
06:00 -3°C° 0 mm 0 m/S 750 mmHg 80%
07:00 -3°C° 0 mm 0 m/S 750 mmHg 79%
08:00 -2°C° 0 mm 0 m/S 750 mmHg 74%
09:00 -1°C° 0 mm 0 m/S 750 mmHg 69%
10:00 0°C° 0 mm 1 m/S 750 mmHg 64%
11:00 +1°C° 0 mm 1 m/S 750 mmHg 61%
12:00 +1°C° 0 mm 1 m/S 750 mmHg 59%
13:00 +2°C° 0 mm 1 m/S 750 mmHg 57%
14:00 +1°C° 0.1 mm 1 m/S 749 mmHg 58%
15:00 +1°C° 0.1 mm 1 m/S 749 mmHg 59%
16:00 +1°C° 0.1 mm 1 m/S 748 mmHg 60%
17:00 0°C° 0 mm 1 m/S 749 mmHg 64%
18:00 0°C° 0 mm 1 m/S 749 mmHg 68%
19:00 -1°C° 0 mm 1 m/S 749 mmHg 72%
20:00 -1°C° 0 mm 1 m/S 749 mmHg 73%
21:00 -2°C° 0 mm 1 m/S 749 mmHg 73%
22:00 -2°C° 0 mm 1 m/S 749 mmHg 73%
23:00 -2°C° 0 mm 1 m/S 749 mmHg 73%

10 März, Mittwoch

Zeit Temperatur Niederschläge Wind Luftdruck Luftfeuchtigkeit
00:00 -2°C° 0 mm 1 m/S 749 mmHg 73%
01:00 -2°C° 0 mm 1 m/S 749 mmHg 73%
02:00 -2°C° 0 mm 1 m/S 749 mmHg 73%
03:00 -2°C° 0 mm 1 m/S 748 mmHg 74%
04:00 -2°C° 0 mm 1 m/S 748 mmHg 74%
05:00 -2°C° 0 mm 1 m/S 748 mmHg 74%
06:00 -2°C° 0 mm 1 m/S 748 mmHg 74%
07:00 -2°C° 0 mm 1 m/S 749 mmHg 73%
08:00 -1°C° 0 mm 1 m/S 749 mmHg 67%
09:00 +1°C° 0 mm 1 m/S 749 mmHg 60%
10:00 +2°C° 0 mm 1 m/S 749 mmHg 53%
11:00 +1°C° 0 mm 2 m/S 749 mmHg 50%
12:00 +2°C° 0 mm 2 m/S 749 mmHg 46%
13:00 +3°C° 0 mm 2 m/S 750 mmHg 43%
14:00 +2°C° 0 mm 2 m/S 749 mmHg 45%
15:00 +2°C° 0 mm 2 m/S 749 mmHg 48%
16:00 +2°C° 0 mm 2 m/S 749 mmHg 50%
17:00 +1°C° 0 mm 2 m/S 749 mmHg 54%
18:00 +1°C° 0 mm 1 m/S 749 mmHg 58%
19:00 0°C° 0 mm 1 m/S 749 mmHg 62%
20:00 -3°C° 0 mm 2 m/S 749 mmHg 62%
21:00 -3°C° 0 mm 2 m/S 749 mmHg 62%
22:00 -3°C° 0 mm 2 m/S 749 mmHg 63%
23:00 -3°C° 0 mm 2 m/S 749 mmHg 63%

11 März, Donnerstag

Zeit Temperatur Niederschläge Wind Luftdruck Luftfeuchtigkeit
00:00 -3°C° 0 mm 2 m/S 749 mmHg 64%
01:00 -3°C° 0 mm 2 m/S 748 mmHg 65%
02:00 -4°C° 0 mm 3 m/S 748 mmHg 64%
03:00 -4°C° 0 mm 3 m/S 747 mmHg 63%
04:00 -4°C° 0 mm 3 m/S 746 mmHg 63%
05:00 -4°C° 0 mm 4 m/S 746 mmHg 61%
06:00 -3°C° 0 mm 4 m/S 745 mmHg 59%
07:00 -4°C° 0 mm 5 m/S 745 mmHg 57%
08:00 -3°C° 0 mm 6 m/S 744 mmHg 55%
09:00 -2°C° 0 mm 6 m/S 744 mmHg 54%
10:00 -1°C° 0 mm 7 m/S 743 mmHg 52%
11:00 -1°C° 0 mm 8 m/S 743 mmHg 57%
12:00 -1°C° 0 mm 8 m/S 742 mmHg 63%
13:00 -1°C° 0 mm 8 m/S 741 mmHg 68%
14:00 -1°C° 0.5 mm 8 m/S 740 mmHg 77%
15:00 -2°C° 0.5 mm 8 m/S 739 mmHg 86%
16:00 -2°C° 0.5 mm 8 m/S 738 mmHg 96%
17:00 -2°C° 0.9 mm 8 m/S 737 mmHg 95%
18:00 -1°C° 0.9 mm 8 m/S 736 mmHg 95%
19:00 -1°C° 0.9 mm 7 m/S 735 mmHg 95%
20:00 0°C° 1.4 mm 7 m/S 735 mmHg 95%
21:00 +2°C° 1.4 mm 7 m/S 735 mmHg 94%
22:00 +2°C° 1.4 mm 6 m/S 734 mmHg 94%
23:00 +2°C° 0.1 mm 6 m/S 735 mmHg 92%

12 März, Freitag

Zeit Temperatur Niederschläge Wind Luftdruck Luftfeuchtigkeit
00:00 +1°C° 0.1 mm 6 m/S 735 mmHg 91%
01:00 +1°C° 0.1 mm 5 m/S 735 mmHg 90%
02:00 +1°C° 0 mm 5 m/S 735 mmHg 90%
03:00 +1°C° 0 mm 5 m/S 735 mmHg 90%
04:00 0°C° 0 mm 5 m/S 735 mmHg 91%
05:00 +1°C° 0 mm 6 m/S 736 mmHg 90%
06:00 +1°C° 0 mm 6 m/S 736 mmHg 90%
07:00 +1°C° 0 mm 6 m/S 736 mmHg 90%
08:00 +1°C° 0.1 mm 6 m/S 736 mmHg 87%
09:00 +2°C° 0.1 mm 7 m/S 736 mmHg 84%
10:00 +2°C° 0.1 mm 7 m/S 737 mmHg 82%
11:00 +3°C° 0.1 mm 7 m/S 737 mmHg 77%
12:00 +3°C° 0.1 mm 7 m/S 737 mmHg 72%
13:00 +4°C° 0.1 mm 8 m/S 738 mmHg 67%
14:00 +4°C° 0.1 mm 7 m/S 738 mmHg 68%
15:00 +3°C° 0.1 mm 6 m/S 738 mmHg 70%
16:00 +3°C° 0.1 mm 5 m/S 738 mmHg 72%
17:00 +2°C° 0 mm 5 m/S 739 mmHg 74%
18:00 +1°C° 0 mm 4 m/S 739 mmHg 77%
19:00 0°C° 0 mm 4 m/S 739 mmHg 79%
20:00 +1°C° 0 mm 4 m/S 739 mmHg 80%
21:00 +1°C° 0 mm 4 m/S 739 mmHg 80%
22:00 +1°C° 0 mm 5 m/S 739 mmHg 81%
23:00 +1°C° 0 mm 5 m/S 738 mmHg 84%
Mehr zeigen

Wir brauchen deine Erlaubnis

Meteoprog und unser Service Anbieter werden persönliche Daten aufbewahren, so wie Cookies, Geräte Bezeichnung oder ähnliche Technologien von deinem Gerät und Prozess, so wie Persönliche Daten Inhalte und Werbungen, genauso wie social Media und den Verkehr zu analysieren.

  • Aufbewahrung und/oder Zugang zu deiner Geräte Informationen.

    Cookies, Geräte Bezeichnung oder andere Informationen, können aufbewahrt oder Zugang zu deinem Gerät erhalten, für den Grund, der oben angegeben wird.

  • Personalisierte Werbung und Inhalte, Messungen, Einblick in das Publikum und Produkt Entwicklung.

    Werbungen und Inhalte können personalisiert werden, basierend auf ein Profil. Mehr Daten können besser personalisierte Werbungen und Inhalte hinzufügen. Werbung und Inhalte können gezeigt und gemessen werden. Einblicke über das Publikum, welche die Werbung gesehen haben und den Inhalt, können abgeleitet werden. So wie Daten können genutzt werden, um es zu verbessern oder die Benutzer Erfahrung zu verbessern das System und die Software.

Wenn du “Ich stimme zu” klickst, erlaubst du uns, die Cookies zu benutzen die Geräte Bezeichnung, den Web oder ähnliche Technologien zu benutzen. Deine Settings, können in deinem Gerät bei deinem Browser geändert werden.

Für den bestimmten Zweck, berechtigten Interessen beruhen darauf, mehr als auf den Inhalt. Du kannst mehr darüber in unseren Privaten und Cookie Politik lesen.